Weather in Nekhayevskiy

Russia / Volgograd Oblast     50°20′01″N   41°42′08″E
temp.,
°C
wind,
m/s
gust,
m/s
humid.,
%
clouds,
%
prec.,
mm/h
press.,
hPa
HPBL,
m
6 august, fri
fri600:00+20ese35475 0.0 101573
03:00+19se364837 0.0 1015106
06:00+20ese394832 0.0 1015221
09:00+26se583294 0.0 1014655
12:00+29ese462891 0.0 10141088
15:00+32se552399 0.0 10122910
18:00+32ese562430 0.0 10112056
21:00+25ese41330100 0.0 1011252
7 august, sat
sat700:00+23ese51533100 0.0 1012333
03:00+21ese413362 0.0 1011267
06:00+21ese515364 0.0 1012372
09:00+29se710235 0.0 1012919
12:00+33se6718100 0.0 10112115
15:00+34ese6716100 0.0 10102320
18:00+33ese561887 0.0 10091221
21:00+25e4122799 0.0 1011192
8 august, sun
sun800:00+25e41327100 0.0 1011282
03:00+23e3113244 0.0 1012232
06:00+23e31231100 0.0 1012256
09:00+30ese6921100 0.0 1012588
12:00+32sse6619100 0.0 10131156
15:00+31n2321100 0.0 1014420
18:00+29nne61124100 0.0 1014571
21:00+27n4528100 0.0 101589
9 august, mon
mon900:00+26nne81531100 0.0 1014501
03:00+26ne71529100 0.0 1013472
06:00+26ene61332100 0.0 1014562
09:00+29e71329100 0.0 10141089
12:00+32e81223100 0.0 10142288
15:00+34ese892095 0.0 10132706
18:00+33e81021100 0.0 10121258
21:00+26ene61532100 0.1 1014499
10 august, tue
tue1000:00+25ese6143189 0.3 1014288
03:00+22ene233799 0.3 101450
06:00+23ne2235100 0.0 101352
09:00+29e5720100 0.0 1012601
12:00+35ese7915100 0.0 10111738
15:00+36se81015100 0.0 10093742
18:00+27e81337100 0.0 1011700
21:00+23ne34455 0.0 101053